Location: Akçaini?
(36.6214°N, 29.8399°E)
Time: 16:27:08
(UTC+00:00)

Daily predictions for brighter satellites

Satellite Brightness Start Highest point End
(mag) Time Altitude Azimuth Time Altitude Azimuth Time Altitude Azimuth
FALCON 9 R/B 4.2 15:40:42 10° WSW 15:45:50 36° S 16:01:34 10° ESE
Atlas Centaur 2 3.4 15:54:07 10° WSW 16:01:58 54° S 16:08:52 10° ESE
Cosmos 1725 Rocket 4.2 15:58:38 10° N 16:04:54 81° W 16:11:11 10° S
Cosmos 2344 4.4 15:57:52 10° S 16:05:10 30° ESE 16:11:23 10° NE
Cosmos 2151 Rocket 3.7 16:11:21 10° N 16:15:52 86° W 16:20:20 10° S
Cosmos 2297 Rocket 2.2 16:11:04 10° SSW 16:16:44 90° ESE 16:22:25 10° NNE
Cosmos 44 Rocket 3.3 16:12:41 10° SSW 16:17:27 65° ESE 16:22:26 10° NE
USA 306 1.9 16:16:56 10° NNW 16:19:01 27° NNE 16:19:45 19° ENE
YAOGAN 1 2.6 16:15:09 10° SSE 16:19:17 55° ENE 16:23:27 10° N
Cosmos 1975 Rocket 4.1 16:15:51 10° SE 16:19:22 24° E 16:22:52 10° NE
PSLV R/B 4.1 16:17:08 10° SE 16:20:50 33° ENE 16:24:31 10° N
SPOT 1/Viking Rocket 3.7 16:17:25 10° S 16:22:31 77° W 16:27:38 10° NNW
Cosmos 1455 Rocket 3.7 16:19:55 10° NNE 16:23:46 32° ENE 16:27:37 10° SE
Aureole 3 Rocket 2.7 16:21:28 10° N 16:24:46 39° ENE 16:27:39 10° SSE
CZ-4C R/B 3.9 16:22:49 10° W 16:25:57 20° NW 16:29:36 10° N
Cosmos 2061 Rocket 4.0 16:19:56 10° N 16:26:20 87° E 16:32:36 10° S
Helios 1A Rocket 3.8 16:24:49 13° ENE 16:26:31 18° E 16:28:47 10° SE
Cosmos 2228 4.3 16:24:21 10° NNE 16:27:19 19° ENE 16:30:18 10° ESE
COSMO-SKYMED 1 2.3 16:23:29 10° NNE 16:27:36 81° E 16:31:42 10° S
CZ-2D R/B 3.3 16:26:17 10° SSE 16:30:06 61° ENE 16:34:01 10° N
Delta 2 Rocket 2.5 16:27:16 10° W 16:30:17 75° S 16:32:28 18° E
Meteor 2-1 Rocket 4.4 16:25:25 10° N 16:31:18 90° ESE 16:37:13 10° S
Okean 1 Rocket 3.3 16:34:41 10° N 16:39:04 74° W 16:43:22 10° S
Okean 2 Rocket 3.9 16:39:49 10° NNW 16:44:05 53° W 16:48:19 10° S
Cosmos 2263 Rocket 2.8 16:40:12 10° SSE 16:45:16 35° ESE 16:49:56 12° NE
Cosmos 1602 2.9 16:43:08 10° S 16:45:48 49° E 16:47:50 16° NNE
SJ-6B 3.3 16:46:06 26° E 16:46:43 28° ENE 16:49:41 10° NNE
Cosmos 1980 3.6 16:46:19 10° NNW 16:51:58 71° ENE 16:57:34 10° SSE
ATLAS 5 CENTAUR R/B 4.3 16:48:09 10° WNW 16:52:15 26° WSW 16:57:01 10° S
COSMOS 2428 3.9 16:49:34 10° NW 16:55:00 46° WSW 17:00:24 10° S
Cosmos 2237 Rocket 2.1 16:51:35 10° NNW 16:57:16 72° ENE 17:02:55 10° SSE
SeaSat 1 3.5 16:54:23 10° S 16:59:05 47° WSW 17:03:48 10° NW
Meteor 1-27 4.2 16:53:40 10° N 16:59:29 76° E 17:05:18 10° SSE
Resurs 01 Rocket 1.5 16:58:23 10° SSE 17:02:45 77° ENE 17:07:09 10° N
Cosmos 1125 Rocket 4.2 16:59:57 10° NNW 17:05:02 56° WSW 17:10:06 10° S
SPOT 5 4.1 17:06:50 23° NE 17:06:50 23° NE 17:09:41 10° NNE
USA 234 3.7 17:03:09 10° SSE 17:09:36 63° SW 17:16:06 10° NW
NOAA 6 4.5 17:10:32 10° S 17:15:36 64° WSW 17:20:44 10° NNW
Cosmos 2227 Rocket 2.4 17:10:26 10° SSW 17:16:02 70° WNW 17:21:41 10° NNE
Cosmos 783 Rocket 4.4 17:12:57 10° S 17:18:12 76° ESE 17:22:45 14° NNE
Tsikada Rocket 4.3 17:13:49 10° SSE 17:19:28 40° E 17:25:10 10° NNE
SL-16 R/B 3.1 17:18:01 10° N 17:22:04 30° NE 17:22:04 30° NE
Tiangong -0.7 17:20:53 10° WNW 17:23:23 32° NNW 17:23:23 32° NNW
Cosmos 1346 Rocket 2.9 17:23:03 10° SSW 17:26:37 63° W 17:28:21 28° N
Gbstr 26 Del rocket 4.4 17:34:07 10° WSW 17:40:47 70° NW 17:44:25 33° NE
Haruka 3.3 17:37:28 10° WSW 17:42:50 43° S 17:42:50 43° S
CSL-04 Debris 4.5 17:49:09 52° NNE 17:49:09 52° NNE 17:53:21 10° N
Atlas Centaur 2 3.2 17:43:14 10° W 17:50:25 44° SSW 17:51:57 39° SSE
NOSS 3-4 (A) 3.9 17:44:34 10° NNW 17:51:46 85° WSW 17:55:55 33° SSE
NOSS 3-4 (C) 3.9 17:44:51 10° NNW 17:52:03 86° WSW 17:56:04 34° SSE
CSL-04 Rocket 3.8 17:53:36 59° N 17:53:36 59° N 17:57:51 10° N
Cosmos 2150 Rocket 4.3 17:47:38 10° NNW 17:52:42 62° WSW 17:54:26 39° SSW
Cosmos 2034 Rocket 3.9 17:47:42 10° N 17:53:54 88° W 17:59:43 12° S
Cosmos 2298 Rocket 4.4 17:50:41 10° NNW 17:55:54 63° WSW 17:57:29 43° SSW
BREEZE M DEB (TANK) 4.0 17:37:41 10° SW 17:57:32 75° SE 17:58:50 62° E
DNEPR-1 R/B 4.5 18:05:43 10° NNW 18:10:09 64° NW 18:10:09 64° NW
Cosmos 2219 3.6 18:09:57 10° SSW 18:15:11 61° W 18:15:11 61° W
Cosmos 2344 4.4 18:11:31 10° WSW 18:19:14 45° NW 18:23:43 22° N
Cosmos 2263 Rocket 3.9 18:24:13 10° WSW 18:29:08 30° WNW 18:31:43 21° NNW
H-2A R/B 4.2 18:05:23 10° W 18:33:39 48° SSW 18:34:11 48° S
SL-16 R/B 4.5 19:02:03 10° NW 19:03:58 19° NW 19:03:58 19° NW
